Temp
84 84 88 86 86 65 71 77 70 75 81 77 64 66 69 68 62 57 70 67 71 79 78 82 84 85 86 87 87 88 86 87 88 88 89 90 91 90 89 88 88 85 85 87 88 88 88 87 87 86 85 85 84 83 83 82 82 82 82 82 82 82 82
85 89 89 88 88 86 75 70 75 83 84 81 68 56 60 58 50 57 69 63 61 67 59 77 80 82 84 85 87 90 88 86 86 88 89 89 90 89 89 89 88 88 86 86 89 89 89 88 87 86 85 86 85 85 84 82 82 81 82 82 82 82 81
85 89 87 83 88 90 80 73 86 72 58 63 64 64 51 51 53 55 59 67 66 62 62 75 75 79 80 82 85 88 87 86 86 87 89 90 91 90 89 89 88 87 88 87 88 90 91 89 87 87 87 87 86 86 85 85 83 83 83 84 84 83 83
84 85 81 68 75 84 88 87 79 84 75 66 62 64 63 59 50 54 57 63 56 70 69 74 75 80 81 83 82 85 89 87 88 87 89 89 89 89 89 89 89 88 89 90 90 90 91 89 88 88 88 89 88 87 85 85 85 84 84 83 83 82 83
84 71 77 72 74 71 74 75 73 74 74 78 75 73 68 57 53 49 49 50 60 66 77 80 77 81 83 86 83 84 88 88 91 89 89 88 89 89 89 90 90 89 90 91 91 91 92 91 89 89 89 89 89 88 86 86 84 84 84 84 84 83 83
72 75 82 83 81 80 77 75 72 74 69 61 61 59 75 72 61 49 53 53 60 73 90 80 79 82 86 87 85 85 87 88 90 90 90 89 89 89 90 91 92 92 90 91 92 92 91 90 89 89 90 90 89 88 88 87 86 85 85 84 84 83 83
71 80 85 88 88 86 83 80 75 78 73 70 59 46 55 69 70 73 64 58 56 72 79 82 81 81 88 87 86 85 88 90 91 89 91 90 90 90 91 92 93 92 91 90 90 89 90 90 88 89 89 89 89 89 89 88 87 86 87 86 85 84 83
78 84 87 87 88 86 81 80 82 78 73 74 69 63 62 60 63 61 59 57 60 78 81 81 83 79 86 89 90 87 89 92 93 90 90 89 88 88 91 93 93 92 91 90 88 87 88 88 87 88 89 89 90 90 90 89 88 87 87 87 86 85 83
61 69 73 79 84 84 77 75 78 80 80 79 77 75 67 64 65 63 56 53 56 73 78 77 83 83 85 87 90 90 88 88 91 92 85 89 88 88 89 90 90 88 88 87 86 86 86 87 88 88 88 89 90 89 90 90 89 89 88 88 87 85 84
49 49 52 56 65 72 77 79 79 80 79 76 72 65 62 50 58 65 59 56 58 73 84 83 78 80 81 82 87 91 90 86 91 92 83 87 88 85 85 86 84 86 86 86 84 83 84 86 88 87 87 89 90 90 90 91 90 89 89 89 88 86 85
58 61 60 72 76 74 71 75 77 78 80 81 77 67 60 55 50 59 61 65 63 68 74 83 81 77 79 84 80 86 85 82 85 80 80 86 86 85 87 86 86 85 83 84 83 82 85 87 87 87 88 89 90 88 89 91 91 90 89 89 87 87 86
68 71 71 78 78 74 76 75 75 78 78 78 75 67 65 66 61 45 55 61 68 72 74 73 76 79 78 76 78 81 79 79 83 82 81 86 86 87 88 88 86 83 83 83 82 82 84 86 87 87 88 89 89 88 89 91 91 90 90 88 87 87 85
74 76 77 79 79 78 78 78 77 76 77 76 73 70 73 66 63 60 60 62 63 70 79 82 79 77 81 82 82 85 85 81 81 80 83 85 86 87 87 85 83 81 81 81 82 82 83 85 86 86 87 88 88 88 90 90 92 91 90 88 87 87 85
73 75 77 78 76 77 78 78 78 78 78 77 76 75 76 74 62 67 71 62 66 72 75 78 78 79 84 83 84 84 82 82 83 83 82 86 86 86 85 84 84 83 83 83 83 83 83 85 85 87 86 87 88 88 90 91 91 92 90 88 86 86 85
70 76 77 78 77 76 74 76 79 79 79 78 78 78 77 75 74 75 72 67 67 76 76 77 79 77 82 80 85 85 83 83 85 85 85 86 87 86 85 84 84 84 84 84 82 82 83 84 86 87 87 88 89 91 91 92 91 92 91 88 87 86 85
62 74 75 76 76 76 74 73 75 77 76 73 76 74 78 73 64 65 68 62 64 70 75 79 81 78 78 80 78 82 82 83 84 83 84 85 86 87 86 86 86 84 85 85 84 84 85 87 86 88 87 88 89 90 91 92 93 93 91 89 87 86 86
56 68 72 74 74 71 66 68 74 75 77 78 77 78 80 79 79 71 62 61 65 69 73 76 75 78 77 77 78 76 75 79 82 83 83 82 84 86 87 86 85 86 87 86 86 87 88 89 88 90 89 89 88 90 90 91 93 93 91 89 87 86 86
56 67 71 72 64 56 59 75 81 79 76 74 76 76 75 78 80 76 77 72 70 75 73 76 76 81 83 78 75 79 81 75 78 80 84 89 88 86 88 88 87 87 87 88 87 88 88 89 91 92 91 90 90 92 93 92 92 92 90 89 88 86 86
54 62 64 58 51 55 71 79 83 83 81 80 76 74 77 80 79 82 77 76 78 80 80 76 73 73 77 79 78 81 84 80 80 82 84 80 80 81 85 86 88 87 87 87 86 86 88 90 90 91 91 91 91 92 91 90 90 90 90 88 87 86 86
61 58 55 48 51 66 75 77 79 80 80 78 76 72 76 76 76 74 72 72 75 72 73 75 74 75 76 80 77 76 82 82 82 83 82 83 84 83 83 86 86 85 87 87 88 87 89 89 90 92 91 93 92 92 93 91 91 90 90 87 86 86 86
55 56 55 56 63 65 69 72 74 74 69 71 69 59 63 73 74 73 72 74 74 74 74 74 74 77 79 76 73 77 83 81 83 85 84 85 84 85 82 86 87 87 89 89 90 89 89 90 90 92 93 93 92 92 92 91 90 90 89 86 85 86 86
60 54 52 53 52 51 58 68 76 81 82 78 72 66 62 71 74 76 73 71 72 73 74 74 74 75 72 69 71 78 86 86 84 84 87 89 87 86 88 83 88 88 88 90 90 90 89 90 91 92 93 93 91 90 90 91 89 89 88 86 85 85 85
57 54 50 51 50 54 63 68 77 80 78 82 75 62 55 68 72 75 76 74 72 73 73 72 72 69 63 63 70 78 82 87 94 92 86 89 88 87 87 87 86 89 89 89 90 88 89 89 91 91 92 92 90 88 88 90 90 88 87 87 85 85 86
55 54 53 51 58 57 64 74 78 80 80 80 71 55 54 65 72 75 76 74 74 73 72 73 72 68 62 65 73 81 85 87 88 90 92 81 81 83 86 88 85 86 87 87 87 88 88 89 90 90 91 90 88 87 87 90 89 88 87 86 86 87 86
56 55 52 58 59 65 72 75 77 78 82 73 56 43 58 69 72 74 75 75 74 73 72 72 68 69 71 72 76 81 82 84 81 82 82 82 82 82 86 86 85 83 86 87 88 89 89 88 90 91 90 88 86 86 87 87 87 90 88 86 85 85 84
52 53 52 51 58 66 73 74 78 77 73 53 50 64 69 71 72 74 76 74 74 74 72 70 69 71 75 74 75 76 76 78 78 81 82 82 84 84 82 82 81 84 88 87 88 90 89 88 89 90 89 86 85 85 85 86 88 91 86 85 85 83 82
59 50 45 41 36 61 79 73 70 69 59 59 67 70 72 75 73 73 73 74 73 74 70 72 71 72 72 72 71 72 72 73 73 75 77 78 78 80 82 84 87 84 86 86 88 89 89 90 90 90 89 85 84 84 85 86 88 87 85 85 83 82 81
45 47 43 43 58 65 77 74 63 61 66 68 70 71 68 72 72 71 71 72 72 72 70 69 70 70 69 69 70 70 70 70 71 72 72 73 74 76 81 85 84 86 82 82 87 89 89 89 90 89 89 84 83 83 84 86 85 84 84 83 82 81 80
50 48 53 60 61 63 73 71 68 68 71 74 74 73 72 70 70 72 71 71 72 72 71 69 68 66 67 67 69 67 67 68 68 69 69 71 71 73 74 74 73 79 82 77 74 78 84 88 88 88 88 84 82 82 83 83 83 83 82 81 80 79 79
59 61 61 61 59 60 64 71 70 71 75 75 73 72 68 68 68 69 68 71 71 71 70 67 65 65 66 66 66 66 66 66 67 68 69 69 70 72 73 73 71 72 75 73 72 69 68 73 82 86 86 86 82 82 83 83 84 83 81 80 79 79 78
51 44 58 58 58 60 61 68 72 76 74 71 71 68 67 67 68 68 68 68 69 70 69 67 65 65 66 65 65 65 65 65 65 66 66 66 67 68 69 70 71 70 71 70 70 69 70 70 70 78 86 86 84 83 82 83 83 81 80 79 77 77 76
51 52 56 58 61 61 63 64 69 70 70 71 70 69 68 68 68 68 67 68 67 68 68 68 67 66 67 65 64 64 64 64 64 65 65 66 66 67 69 69 70 69 68 67 67 68 67 68 69 68 73 80 84 84 84 83 82 80 78 77 77 75 74
55 60 60 58 60 60 63 64 62 67 69 69 69 70 69 69 67 66 67 67 66 66 65 67 66 65 65 66 65 65 64 64 65 65 65 66 66 66 67 69 69 69 68 67 67 69 67 68 69 69 70 70 70 72 74 74 73 71 71 71 71 72 72
49 50 52 56 51 51 58 63 63 62 67 69 67 67 66 66 65 65 64 64 65 65 65 65 65 63 63 65 65 64 64 64 64 65 66 66 66 67 68 69 70 70 69 68 68 68 68 68 68 68 68 70 71 72 72 72 72 71 71 71 71 72 73
48 55 57 59 58 57 57 59 63 65 66 65 65 64 64 64 65 65 64 62 61 62 63 65 64 63 63 63 64 65 64 63 64 66 66 66 66 67 68 68 68 69 69 69 68 66 67 68 69 69 69 71 71 71 71 72 72 72 72 70 72 74 74
55 59 60 59 57 55 58 61 62 63 65 66 64 65 65 64 64 64 63 62 61 60 61 62 64 63 64 64 64 63 64 65 65 66 67 68 67 67 68 68 69 68 68 70 68 66 67 69 68 69 69 70 71 71 71 72 74 74 73 71 70 72 73
53 59 60 59 60 60 60 62 62 62 65 65 63 63 64 63 64 64 62 61 62 61 60 60 62 63 63 64 63 62 62 64 65 65 66 66 67 66 68 70 69 68 68 69 70 70 68 68 68 69 71 73 73 74 76 76 77 76 75 75 74 73 72
MSLP
997.46 997.30 996.82 997.66 997.74 1005.02 1000.62 1000.74 1003.06 1000.66 998.74 1001.42 1004.34 1004.26 1003.46 1003.98 1005.30 1006.94 1002.58 1002.90 1001.22 998.58 998.74 998.18 997.70 998.02 998.10 997.70 997.94 998.22 998.62 998.78 998.86 999.46 999.58 999.62 999.78 999.98 1000.22 1000.50 1000.62 1000.90 1001.14 1001.34 1001.46 1001.86 1002.30 1002.74 1003.18 1003.38 1003.66 1004.06 1004.66 1005.30 1005.98 1006.50 1006.90 1007.22 1007.62 1007.94 1008.34 1008.62 1008.98
996.74 995.62 995.78 996.54 996.58 997.18 999.66 1002.62 1000.54 998.34 997.50 999.26 1003.18 1007.62 1005.86 1006.90 1009.10 1006.82 1003.38 1004.94 1003.86 1003.18 1004.94 998.46 998.94 999.10 998.58 998.46 998.02 997.82 997.82 998.26 999.10 999.18 999.22 999.22 999.42 999.46 999.42 999.42 999.62 999.94 1000.46 1000.74 1000.90 1001.14 1001.50 1001.90 1002.30 1002.86 1003.34 1003.58 1004.02 1004.58 1005.18 1005.94 1006.50 1007.02 1007.18 1007.54 1007.94 1008.30 1008.70
996.54 995.34 996.34 997.66 996.10 995.66 998.90 1000.30 996.66 1001.66 1005.26 1005.90 1002.86 1004.54 1009.18 1009.14 1009.10 1007.74 1004.74 1003.30 1003.26 1002.62 1003.02 999.58 1000.10 999.62 999.38 998.66 998.14 997.98 998.02 998.38 998.66 998.66 998.46 998.34 998.38 998.82 999.22 999.42 999.62 999.78 1000.02 1000.38 1000.50 1000.62 1000.66 1001.06 1001.62 1002.10 1002.66 1003.18 1003.70 1004.18 1004.58 1005.10 1005.74 1005.98 1006.46 1006.90 1007.30 1007.66 1007.98
996.02 996.34 997.46 1001.86 999.82 997.02 996.22 996.70 998.90 997.46 1000.14 1002.82 1005.02 1003.78 1003.54 1004.98 1008.18 1007.94 1006.70 1004.30 1005.38 1000.42 1000.02 998.98 999.38 998.22 998.10 997.98 998.18 998.18 997.38 997.58 997.74 998.02 998.10 998.18 998.34 998.50 998.74 998.94 999.06 999.26 999.34 999.46 999.70 999.98 1000.42 1000.78 1001.26 1001.70 1002.22 1002.74 1003.34 1003.74 1004.34 1004.82 1005.18 1005.62 1006.14 1006.58 1006.98 1007.46 1007.66
995.86 999.78 997.54 999.66 999.42 1000.74 1000.14 1000.18 1000.66 1000.26 1000.18 998.02 1000.14 1001.02 1002.82 1004.74 1006.46 1006.86 1007.10 1007.34 1003.62 999.54 996.78 997.18 997.94 997.26 996.90 996.62 997.26 997.10 996.58 996.58 996.34 996.90 997.38 997.66 997.70 997.86 998.02 998.10 998.38 998.54 998.70 998.90 999.26 999.34 999.46 999.86 1000.54 1001.18 1001.74 1002.18 1002.66 1003.22 1003.90 1004.26 1005.02 1005.42 1005.78 1006.02 1006.42 1006.90 1007.30
998.46 997.30 995.50 995.86 996.90 997.50 998.66 999.46 1000.46 999.90 1002.02 1003.18 1004.46 1004.98 1000.14 1001.30 1003.94 1005.58 1006.34 1007.06 1002.26 998.10 994.98 995.70 995.98 996.06 995.78 995.38 995.70 996.14 995.86 995.90 995.82 995.90 996.10 996.66 997.22 997.06 997.10 997.22 997.34 997.78 998.10 998.34 998.54 998.82 999.18 999.78 1000.38 1000.74 1000.98 1001.54 1002.10 1002.54 1003.06 1003.70 1004.26 1004.78 1005.18 1005.58 1005.90 1006.42 1006.86
998.26 995.74 994.14 993.58 994.14 995.22 996.46 997.54 999.26 998.30 999.46 1000.54 1002.90 1005.86 1003.50 1001.42 1001.18 1001.02 1002.66 1005.10 1002.94 996.30 994.66 994.42 994.62 994.82 994.82 994.86 995.10 995.62 995.30 995.10 995.14 995.42 995.30 995.22 995.38 995.94 996.18 996.30 996.66 996.94 997.34 997.70 998.06 998.62 999.02 999.26 999.66 1000.02 1000.58 1000.98 1001.30 1001.86 1002.42 1002.94 1003.54 1004.10 1004.26 1004.70 1005.22 1005.86 1006.46
995.90 994.42 993.22 993.10 993.34 994.74 996.78 996.70 996.62 998.06 999.86 999.50 1001.02 1001.66 1000.82 1002.30 1001.86 1003.30 1003.70 1005.38 1002.26 996.30 994.06 994.02 993.82 993.74 993.70 993.78 993.82 994.70 994.66 994.22 994.26 994.90 995.34 995.66 995.98 995.90 995.86 995.98 996.18 996.38 996.86 997.38 998.14 998.74 999.02 999.22 999.66 999.82 999.98 1000.34 1000.90 1001.38 1001.74 1002.26 1002.86 1003.30 1003.74 1004.22 1004.82 1005.46 1006.02
1000.10 998.14 996.14 995.58 993.98 994.54 996.38 997.34 996.82 996.74 997.14 997.78 998.14 998.90 998.94 1001.90 1001.30 1001.66 1003.50 1006.14 1002.62 996.54 994.06 994.10 993.90 993.58 993.66 994.10 993.82 993.66 994.62 994.50 994.26 994.02 994.94 995.10 995.50 995.78 995.98 996.14 996.14 996.50 997.18 997.82 998.06 998.22 998.50 998.66 998.90 999.30 999.70 1000.10 1000.50 1000.94 1001.34 1001.78 1002.18 1002.54 1003.10 1003.62 1004.34 1004.94 1005.50
1004.50 1004.06 1002.74 1001.22 999.30 997.14 996.18 995.82 996.18 996.14 997.14 997.94 999.46 1001.98 1001.30 1003.62 1001.06 1000.38 1002.42 1002.62 998.86 995.90 994.50 994.70 994.30 993.86 993.94 993.58 993.66 993.34 993.38 993.98 993.94 993.58 994.78 994.94 995.10 995.58 995.98 996.10 996.54 996.94 997.14 997.38 997.74 998.10 998.38 998.54 998.74 998.98 999.26 999.58 1000.02 1000.46 1000.82 1001.10 1001.78 1002.18 1002.66 1003.18 1003.78 1004.46 1005.02
1000.34 999.26 997.78 995.22 994.66 996.38 997.82 996.78 996.42 996.50 996.10 996.30 997.42 998.86 1001.14 1002.86 1000.94 1001.50 1000.30 999.86 999.34 997.78 996.34 995.26 994.90 994.34 994.42 993.70 993.78 994.10 994.22 993.90 993.54 993.78 994.70 994.66 995.02 995.46 995.58 995.86 996.14 996.34 997.10 997.38 997.42 997.66 997.94 998.14 998.38 998.66 998.94 999.26 999.58 1000.06 1000.54 1000.70 1001.02 1001.58 1002.10 1002.74 1003.34 1003.98 1004.50
996.74 996.02 995.82 994.74 994.74 996.26 996.06 996.50 996.74 995.90 996.22 996.38 997.62 999.54 1000.42 998.14 1000.70 1002.86 999.34 998.30 999.74 998.50 996.74 996.22 995.66 994.54 993.70 993.74 993.46 993.82 993.78 994.18 993.54 993.22 994.30 994.90 995.34 995.22 995.06 995.34 995.82 996.54 996.66 996.82 997.26 997.46 997.66 997.90 998.02 998.38 998.50 998.70 999.10 999.62 1000.10 1000.30 1000.62 1001.14 1001.62 1002.26 1002.94 1003.54 1004.02
995.34 995.10 995.10 994.42 994.58 994.78 994.86 995.22 995.62 996.46 996.02 996.46 997.58 997.50 997.02 997.66 1000.26 1001.54 999.14 998.26 999.10 997.78 996.34 995.26 994.90 994.66 994.02 993.30 992.90 992.38 992.30 993.46 993.90 994.38 994.66 994.90 995.18 995.14 995.42 995.58 995.98 996.34 996.62 996.82 996.94 997.22 997.38 997.58 997.98 998.22 998.50 998.70 998.86 999.22 999.42 999.70 999.98 1000.42 1000.86 1001.74 1002.46 1002.98 1003.50
995.34 994.98 994.94 994.66 995.10 994.82 994.58 994.50 994.70 995.02 995.66 995.98 996.18 996.46 996.10 996.86 997.94 997.30 997.50 998.06 997.70 996.46 995.46 994.38 993.86 992.78 992.98 993.26 992.50 991.94 992.34 993.54 993.78 994.50 994.90 995.06 995.18 995.38 995.58 995.74 995.82 995.74 995.82 996.06 996.30 996.58 997.02 997.34 997.62 997.94 998.26 998.46 998.58 998.86 999.10 999.26 999.58 999.82 1000.42 1001.22 1001.90 1002.42 1002.94
995.14 994.38 994.34 994.26 994.74 995.10 995.66 994.42 993.94 994.06 994.42 995.10 995.22 995.66 995.78 995.86 996.50 996.54 996.86 997.38 997.70 995.18 993.58 993.34 992.86 992.46 992.62 992.62 993.10 993.38 993.06 993.62 993.94 994.22 994.78 995.02 995.22 995.34 995.38 995.50 995.54 995.58 995.58 995.66 995.90 996.34 996.62 996.82 996.98 997.26 997.54 997.74 997.90 998.22 998.46 998.74 999.06 999.18 999.74 1000.66 1001.22 1001.70 1002.22
996.82 994.42 994.42 994.58 994.54 994.94 995.62 995.54 994.70 994.22 994.70 995.98 995.50 996.42 995.30 996.46 997.50 996.78 996.90 998.14 997.94 995.06 993.38 992.78 992.42 993.06 993.46 993.62 993.66 993.26 993.14 994.22 993.86 994.26 994.54 994.62 994.78 994.86 995.02 994.94 995.02 995.30 995.30 995.34 995.62 995.86 995.94 996.02 996.26 996.54 996.94 997.18 997.50 997.78 997.78 998.06 998.22 998.50 999.22 999.86 1000.50 1000.98 1001.30
997.74 995.10 994.42 994.78 995.10 996.58 997.74 996.14 994.30 994.34 993.70 993.70 993.74 993.58 993.54 994.06 994.54 996.78 998.22 997.46 995.14 994.10 993.10 993.66 993.34 992.98 993.30 993.38 993.22 993.38 993.18 992.86 993.66 993.94 993.86 994.30 994.22 994.22 994.06 994.38 994.50 994.62 994.74 994.70 994.82 995.02 995.18 995.38 995.66 995.62 995.74 996.54 997.10 996.98 997.18 997.14 997.54 998.22 998.74 999.22 999.82 1000.38 1000.74
997.14 995.58 995.42 995.50 997.66 1000.34 997.94 992.62 992.06 992.82 994.38 994.06 994.66 994.50 994.10 993.38 993.26 994.46 993.90 994.18 993.18 993.18 993.34 993.58 993.62 992.98 992.50 992.54 991.94 991.54 992.26 993.02 992.86 992.86 992.66 992.42 992.98 993.42 993.42 993.38 993.70 993.78 993.78 993.98 994.10 994.18 994.46 994.54 994.50 994.50 994.86 995.50 995.70 995.78 996.18 996.70 997.30 997.62 998.18 998.74 999.22 999.66 1000.10
997.14 995.86 996.14 998.74 1001.42 999.98 993.46 991.38 991.22 991.22 991.90 992.54 993.70 993.74 993.10 992.90 992.82 992.82 993.22 992.98 992.74 992.46 992.66 992.86 992.50 992.46 991.98 991.22 991.74 991.50 991.22 991.66 992.18 992.14 992.30 992.54 992.54 993.06 993.30 993.26 993.10 993.06 993.18 993.38 993.74 994.14 994.26 994.22 994.26 994.50 994.82 994.78 995.14 995.66 995.94 996.50 996.62 997.10 997.50 998.10 998.62 999.06 999.50
995.10 996.74 998.14 1001.78 1000.14 995.26 993.06 991.62 991.02 990.70 991.22 992.02 993.18 994.42 993.54 993.18 993.42 993.34 993.90 993.78 993.18 992.94 993.06 992.98 992.70 992.66 991.98 990.98 991.02 991.10 990.82 990.98 991.74 992.02 992.10 991.62 991.58 992.06 992.54 992.74 992.62 992.82 993.02 993.14 993.30 993.46 993.18 993.54 993.94 994.02 994.22 994.18 994.86 995.30 995.34 995.90 996.26 996.54 996.94 997.54 998.06 998.46 998.94
997.26 997.42 998.22 998.42 995.22 995.54 994.42 993.62 992.78 992.38 994.38 994.10 995.02 997.46 996.06 994.26 993.78 993.58 994.02 993.34 993.42 993.50 993.38 992.98 992.66 992.14 992.30 993.34 992.42 990.86 990.82 990.58 990.62 990.98 991.18 991.06 991.18 991.14 991.26 991.58 992.06 991.86 991.90 992.26 992.26 992.38 992.74 993.02 993.38 993.58 993.46 993.70 994.26 994.78 995.30 995.54 995.82 996.18 996.58 997.22 997.58 997.82 998.18
995.06 997.46 998.98 998.62 998.86 1000.30 996.90 993.62 991.66 990.54 991.18 992.14 992.74 994.30 996.58 994.38 993.70 993.02 993.70 994.22 993.94 994.18 993.90 993.38 992.66 992.14 993.82 994.94 994.66 992.30 990.66 990.26 990.46 990.18 990.18 990.26 990.42 990.46 990.50 990.86 990.98 991.42 991.70 991.70 991.78 992.06 992.42 992.62 992.58 992.62 992.82 993.26 993.86 994.50 994.94 995.14 995.58 995.94 996.30 996.66 996.82 997.18 997.54
996.42 997.26 999.10 999.38 1000.18 997.94 994.74 993.82 992.14 991.54 991.14 991.74 992.06 994.82 998.26 995.38 993.86 993.22 993.50 994.78 994.74 994.62 994.58 994.02 993.06 994.34 996.26 996.66 995.26 992.94 992.02 990.90 989.62 989.70 989.90 989.74 989.90 990.38 990.66 990.86 991.38 991.06 991.02 991.10 991.34 991.54 991.86 992.46 992.26 992.22 992.46 992.82 993.46 994.14 994.38 994.66 995.02 995.58 995.82 995.94 996.22 996.58 996.74
997.54 997.90 998.70 999.50 997.10 997.70 994.98 992.78 992.14 991.78 991.70 991.58 993.90 1000.06 999.98 995.94 993.98 993.34 993.62 994.62 994.90 994.90 994.74 994.42 995.14 996.82 998.62 998.18 995.94 993.22 991.90 991.18 990.38 989.86 989.34 989.94 990.10 990.02 989.82 989.90 990.38 990.66 990.58 991.06 991.58 991.94 992.06 991.86 991.38 991.66 992.02 992.62 993.10 993.50 993.78 993.98 994.62 994.94 995.06 995.02 995.10 995.38 995.94
997.46 998.14 998.78 997.06 996.54 994.90 993.06 993.06 992.38 991.98 991.50 993.46 998.74 1001.38 998.42 994.94 994.46 993.66 993.78 994.38 994.46 994.58 995.06 995.30 996.94 996.46 996.26 995.94 994.70 993.38 992.34 991.26 990.94 990.74 990.02 989.58 989.42 989.58 989.58 989.66 989.66 990.46 990.82 990.90 991.26 991.30 991.14 990.98 991.02 991.06 991.38 992.22 992.86 992.86 993.14 993.66 994.06 993.86 993.86 994.18 994.62 995.14 995.70
998.74 998.54 999.10 999.06 997.10 994.46 992.82 992.34 992.66 992.90 994.26 999.14 999.82 996.38 994.30 994.78 994.82 994.18 993.90 994.34 994.26 994.38 995.10 995.54 996.06 996.06 995.74 995.46 994.70 994.38 994.22 993.78 992.86 992.22 991.70 990.94 989.94 989.42 989.14 988.98 989.26 989.98 990.30 990.54 990.50 990.46 990.22 990.46 990.66 990.86 991.10 991.86 992.10 992.34 992.74 993.14 992.98 992.74 993.34 993.82 994.22 994.90 995.62
997.70 999.06 1000.54 1000.70 1001.82 995.78 992.42 993.22 993.50 993.98 997.46 997.90 995.34 994.70 994.82 994.26 994.74 994.58 994.50 994.38 994.54 994.30 995.22 995.22 995.66 995.74 995.82 995.90 995.74 995.34 995.02 994.82 994.78 993.98 993.02 992.70 992.50 991.54 990.22 989.66 989.14 989.58 990.14 989.98 989.98 989.86 989.86 989.94 990.14 990.34 990.74 991.42 991.70 991.82 992.18 991.98 991.90 992.46 993.18 993.58 994.10 994.78 995.54
1003.26 1000.90 1000.98 1001.18 998.46 996.78 993.42 993.34 996.06 995.62 995.38 994.42 994.06 994.54 995.70 994.86 994.66 994.82 994.74 994.86 994.78 994.66 995.10 995.74 995.78 995.90 996.14 996.10 995.90 995.62 995.26 995.22 994.94 994.58 994.14 993.42 992.82 992.38 991.74 990.90 990.02 989.50 990.18 990.38 989.98 989.46 989.46 989.66 989.74 989.86 990.10 990.86 991.22 991.54 991.66 991.30 991.62 992.26 992.94 993.54 994.10 994.94 995.70
1002.78 1002.46 1001.14 999.02 998.50 998.02 995.14 994.30 995.14 995.02 994.50 993.90 994.10 994.58 995.06 995.38 995.30 994.34 994.90 995.34 995.10 994.94 995.30 995.90 996.26 996.70 996.78 996.90 996.66 996.62 996.38 995.82 995.34 995.06 994.78 994.18 993.74 993.30 992.86 992.94 992.54 991.22 991.30 991.82 992.26 992.14 991.34 990.22 989.50 989.62 989.62 990.30 990.78 991.10 991.10 991.14 991.62 992.10 992.78 993.46 994.22 995.10 995.78
1000.82 999.86 999.50 999.38 999.62 1000.02 998.50 995.14 993.90 994.14 994.58 994.54 994.62 995.02 995.90 996.02 995.90 995.58 995.82 995.58 995.58 995.70 995.62 996.38 996.90 997.22 997.26 997.30 997.14 996.90 996.50 996.14 995.78 995.18 994.54 994.02 993.70 993.18 992.86 992.66 993.14 993.10 991.94 991.94 992.10 992.62 993.26 994.06 992.70 990.26 989.54 989.70 990.54 990.62 990.54 990.90 991.26 991.78 992.66 993.62 994.50 995.26 995.90
1001.78 1002.14 1000.14 1000.22 1000.58 1000.46 999.50 996.46 994.30 993.70 994.42 995.38 995.42 995.90 996.10 996.34 996.06 996.10 996.22 996.10 995.94 996.10 996.22 996.78 997.30 997.50 997.42 997.54 997.46 997.18 996.74 996.42 996.22 995.90 995.54 995.14 994.74 994.42 994.10 993.94 993.46 993.62 992.86 992.94 993.38 993.18 994.06 994.58 994.74 993.46 990.86 989.66 989.78 990.02 990.42 990.78 991.26 991.82 992.74 993.66 994.66 995.38 996.14
1002.42 1001.66 1001.18 1000.86 1000.42 1000.62 999.14 997.30 996.14 995.66 995.30 995.50 995.74 996.06 996.26 996.38 996.38 996.46 996.82 996.46 996.86 996.58 996.82 997.02 997.14 997.46 997.34 997.46 997.54 997.26 997.10 996.98 996.66 996.30 996.02 995.46 994.90 994.54 994.34 994.10 993.90 994.06 994.38 994.18 993.82 993.82 993.94 993.94 994.50 995.66 994.58 992.26 990.42 989.86 990.26 990.74 991.34 992.06 992.98 993.74 994.82 995.74 996.30
1001.58 1000.38 1000.66 1000.98 1000.78 1000.62 999.06 998.02 998.30 997.18 996.06 995.90 996.18 996.10 996.26 996.30 996.74 997.14 997.18 997.26 997.62 997.46 997.78 997.46 997.42 997.50 997.62 997.50 997.54 997.50 997.30 997.06 996.82 996.66 996.34 995.82 995.34 994.94 994.70 994.54 994.50 994.82 994.98 994.90 994.62 994.26 994.34 993.94 993.78 995.10 996.26 995.26 993.82 992.62 992.30 992.54 992.78 993.82 994.74 995.22 996.06 997.26 998.02
1002.46 1002.34 1002.58 1001.90 1002.22 1002.26 1000.62 999.26 999.26 999.34 997.66 996.46 996.50 996.54 996.82 997.06 997.46 997.70 997.98 998.18 998.02 997.94 997.98 997.94 997.90 998.18 998.34 998.06 997.78 997.90 997.78 997.46 997.14 996.74 996.46 996.30 995.94 995.34 994.82 994.62 994.90 995.10 995.18 995.34 995.18 995.06 995.14 994.70 994.58 994.98 996.54 996.54 995.42 994.46 994.54 994.90 994.50 995.46 996.30 996.70 997.46 998.42 998.74
1003.30 1001.94 1001.78 1001.38 1001.42 1001.46 1001.30 1000.62 999.74 999.18 998.82 998.10 997.50 997.54 997.74 997.94 998.02 998.10 998.26 998.62 998.66 998.66 998.58 998.34 998.30 998.58 998.66 998.70 998.34 998.14 997.94 997.78 997.26 996.78 996.66 996.70 996.78 996.30 995.06 994.58 995.10 995.58 995.62 995.42 995.42 995.74 995.78 995.62 995.78 995.86 996.06 996.58 995.70 995.46 995.74 995.90 996.02 996.46 997.06 997.78 998.06 998.42 998.90
1002.18 1001.58 1001.30 1001.42 1001.82 1002.14 1001.46 1000.54 999.82 999.50 998.90 998.58 998.50 998.38 998.18 998.22 998.38 998.50 998.66 998.98 999.14 999.26 999.10 998.98 998.86 998.82 998.78 998.74 998.62 998.66 998.38 998.02 997.66 997.26 996.86 996.66 996.42 996.10 995.70 995.38 995.38 995.74 995.78 995.86 996.38 996.42 996.18 996.50 996.70 996.30 996.26 996.26 996.30 996.02 995.82 996.38 996.50 996.54 996.94 997.82 999.02 999.34 999.30
1002.18 1001.02 1001.18 1001.38 1001.34 1001.50 1001.42 1000.82 999.86 999.74 999.66 999.34 999.34 999.22 998.98 998.78 998.74 998.70 999.02 999.30 999.26 999.34 999.54 999.66 999.42 999.06 998.98 998.98 998.82 998.94 998.90 998.62 998.30 997.94 997.54 997.14 996.90 997.10 997.02 996.54 996.34 996.34 996.46 996.42 996.54 996.54 996.70 996.98 997.06 997.02 996.74 996.18 996.02 995.82 995.58 995.62 996.42 996.66 997.10 997.90 998.82 999.42 999.62
Wind_Speed
14 9 12 12 10 9 5 8 15 16 4 6 2 5 3 3 6 7 0 4 5 1 2 8 14 15 15 13 12 12 11 15 21 19 17 17 15 14 14 13 14 13 13 15 16 17 16 16 17 19 18 17 18 17 17 18 18 17 17 16 15 14 14
19 14 11 15 16 9 3 13 10 1 3 2 5 4 4 7 5 3 6 7 2 8 7 5 11 16 17 16 15 14 12 12 20 19 18 17 15 15 16 17 15 15 14 17 16 15 17 18 19 18 18 17 16 16 18 19 18 18 18 17 16 14 15
16 17 12 13 14 15 11 3 6 5 5 10 3 2 6 6 10 4 4 8 9 8 4 8 12 14 14 14 14 15 15 12 16 18 20 20 19 17 16 16 15 14 14 15 16 18 19 18 17 18 17 17 16 15 16 19 20 20 19 16 15 14 15
13 14 12 13 10 10 13 9 7 7 5 7 9 6 3 2 3 4 7 7 4 6 4 7 10 13 13 14 15 16 17 14 16 15 17 19 18 17 16 16 16 16 17 18 19 19 18 18 18 17 18 17 18 17 16 16 16 16 16 17 15 15 15
13 13 11 11 11 12 11 11 13 6 4 2 8 6 9 6 4 4 2 6 5 4 5 7 8 12 15 17 15 16 18 15 19 18 18 17 18 18 18 17 16 17 18 18 17 17 18 16 15 16 18 20 18 16 17 18 18 18 18 18 17 15 14
10 10 11 15 14 13 12 13 14 13 10 5 10 11 8 10 7 5 6 8 2 5 8 7 10 13 15 16 16 15 13 13 16 16 20 19 18 19 19 18 19 17 16 17 18 17 14 15 17 20 19 18 19 19 18 18 18 18 19 18 16 15 14
8 7 14 18 17 15 14 14 13 14 7 6 4 5 5 6 9 5 4 5 8 5 3 7 8 8 14 11 11 11 11 12 14 14 18 22 23 21 21 20 18 16 15 17 18 18 18 18 19 20 18 19 20 19 19 18 19 19 19 18 16 15 14
12 14 7 18 20 18 15 14 14 12 13 9 7 3 3 3 3 8 4 9 5 5 7 6 5 5 8 13 19 16 14 15 15 10 16 15 14 15 15 15 15 15 14 13 12 15 17 16 16 19 19 18 17 18 19 18 20 20 19 17 16 15 15
5 10 7 11 17 16 12 10 12 15 12 12 11 7 2 7 8 5 7 10 6 4 4 6 7 4 6 10 10 13 11 10 11 14 12 18 17 16 16 15 14 11 10 12 14 15 16 16 16 16 16 17 18 18 17 18 18 19 18 16 17 16 17
14 13 13 10 15 16 9 7 11 17 19 15 10 12 6 5 7 13 6 5 6 7 13 12 6 5 2 3 9 11 12 11 15 16 12 20 20 16 12 12 9 12 14 13 12 10 11 13 15 15 16 17 17 17 18 17 17 17 17 16 17 17 17
10 10 4 2 1 10 14 16 14 12 18 16 12 5 6 11 3 7 10 10 3 4 7 18 11 5 5 6 3 14 8 6 8 4 9 16 16 15 16 14 12 13 12 15 15 14 14 15 14 14 16 17 17 17 17 17 17 17 16 16 16 17 17
11 5 7 8 8 7 15 16 19 16 12 16 17 12 15 6 1 7 4 6 13 13 9 6 7 7 7 5 4 7 7 6 8 10 12 15 13 13 15 16 17 16 17 16 14 14 14 14 14 13 14 16 17 17 18 17 16 16 14 16 16 16 17
21 17 9 10 15 13 9 16 15 19 18 12 16 16 13 7 8 12 6 2 4 9 13 13 8 6 7 10 10 9 8 8 7 7 14 18 19 18 16 15 13 12 12 11 13 13 13 14 14 14 14 15 14 15 16 17 17 18 16 16 17 17 17
16 19 21 18 14 13 12 13 16 14 19 22 18 11 10 12 7 9 12 7 9 6 6 5 6 7 7 3 3 6 6 10 13 8 9 14 14 14 15 13 13 13 14 15 15 15 14 15 15 14 14 15 16 17 18 18 17 17 16 17 17 17 18
14 19 17 20 20 16 13 10 13 18 17 18 20 17 11 9 11 10 8 9 13 9 6 6 3 4 1 5 1 1 1 13 14 13 12 11 12 11 11 10 11 12 13 13 12 13 14 16 17 16 16 16 17 18 17 18 18 17 17 17 18 18 18
3 10 21 22 17 18 18 17 13 16 18 15 14 15 14 12 7 5 6 7 9 8 6 6 7 3 3 4 5 6 2 1 11 13 12 14 16 16 13 14 14 14 15 15 14 15 16 17 17 16 16 16 16 18 18 19 19 17 17 18 19 18 18
3 3 3 13 20 15 17 22 22 9 7 11 6 10 17 17 12 11 8 8 5 8 5 4 6 7 5 5 5 4 5 8 9 10 12 9 12 15 18 17 16 15 14 13 14 16 16 16 17 18 18 16 17 18 18 18 17 17 17 18 19 18 17
2 3 8 7 5 15 18 9 8 8 8 4 13 11 5 9 14 9 11 9 5 1 3 8 8 11 12 6 7 6 8 7 7 7 8 13 15 14 15 17 16 15 14 13 13 15 14 16 18 18 17 18 19 19 18 16 17 18 17 16 18 19 18
3 4 3 6 9 8 5 8 11 14 9 8 8 6 6 7 6 12 10 6 7 11 9 7 5 5 7 8 5 6 8 8 9 9 7 5 4 6 12 12 13 14 15 13 12 11 12 14 14 14 15 16 15 15 15 16 17 18 17 16 17 18 18
3 1 3 7 8 2 5 3 3 2 2 3 1 5 5 4 5 4 1 2 2 3 4 3 2 1 4 2 2 5 4 8 8 7 6 7 8 7 8 14 15 12 12 13 14 15 14 14 13 14 16 15 15 16 16 17 16 17 17 15 16 17 18
6 5 5 5 3 5 4 2 1 1 0 1 1 3 1 5 7 6 4 5 5 6 5 4 4 6 7 3 7 4 7 6 6 9 6 4 4 5 6 11 12 14 17 17 17 16 14 13 14 15 14 15 15 15 16 15 16 16 16 16 16 18 18
3 5 4 3 3 8 5 2 4 4 4 7 7 3 1 5 5 6 6 4 6 7 6 8 6 7 7 8 7 9 9 5 6 5 5 5 5 5 6 6 14 15 13 14 14 14 14 15 16 15 14 15 15 15 16 16 16 15 16 16 16 17 17
1 3 4 6 7 3 3 2 0 4 3 3 4 4 2 3 3 7 9 10 8 7 7 5 8 8 5 3 7 9 9 11 14 10 6 6 3 2 1 3 8 14 16 18 17 16 17 17 15 13 14 16 16 15 16 17 16 15 16 16 16 17 18
0 0 6 6 1 1 2 2 5 7 8 4 2 1 2 3 3 5 9 11 9 8 6 6 11 10 7 8 10 12 9 8 12 13 15 1 7 5 5 3 4 13 13 12 13 15 16 17 17 17 16 15 16 16 17 16 17 17 16 16 16 16 15
1 3 2 1 1 1 1 4 5 2 6 4 4 5 3 1 6 7 10 11 9 7 10 9 8 4 5 5 7 11 13 9 10 12 6 2 5 5 4 1 2 9 11 14 16 18 17 17 16 17 17 16 16 17 16 16 18 18 15 14 14 14 15
2 2 1 2 1 1 0 3 8 9 2 4 4 2 1 5 6 9 9 10 9 9 9 6 6 5 6 9 11 13 15 13 11 11 12 11 5 3 4 6 4 5 13 15 16 18 16 16 15 15 16 17 18 17 16 18 18 15 13 14 15 15 16
2 4 4 5 1 2 1 3 5 5 4 3 2 2 7 6 6 8 9 10 8 8 7 7 7 8 9 10 10 10 11 12 14 12 11 12 15 15 6 6 8 3 10 16 18 17 14 15 15 16 17 18 16 16 18 20 15 12 14 14 16 16 16
5 0 2 3 3 11 5 5 7 1 3 3 2 3 6 6 6 6 7 10 8 7 8 9 9 10 10 11 11 10 11 12 12 12 12 12 12 15 17 13 9 6 5 3 8 12 13 13 15 15 18 18 16 16 17 13 12 14 15 14 15 16 15
1 3 5 10 18 20 10 9 8 5 5 5 8 8 7 6 7 5 10 10 10 10 10 12 11 10 9 7 9 10 10 10 11 13 12 12 12 12 13 12 13 13 12 14 15 15 8 10 16 14 15 16 17 18 12 12 16 17 17 17 17 16 16
3 9 9 5 12 17 19 7 5 8 7 9 10 11 11 10 10 10 9 9 12 12 10 12 9 9 5 7 10 12 11 11 11 12 14 16 17 17 17 15 15 11 7 12 12 12 18 25 17 10 12 15 18 14 13 15 16 17 18 17 17 17 15
7 4 7 11 13 19 20 10 2 11 14 11 10 12 11 10 12 13 13 11 12 12 13 13 10 9 8 7 9 8 10 12 13 13 12 13 13 16 16 14 12 10 7 10 10 12 8 12 20 21 6 11 13 13 15 16 17 18 18 18 17 16 16
1 4 6 8 9 13 14 14 5 12 15 15 13 12 11 12 14 14 11 13 14 11 13 10 11 12 12 13 10 9 9 9 10 11 12 13 15 14 13 14 11 9 9 8 10 9 7 8 10 17 22 8 6 15 16 16 17 18 19 19 18 16 17
5 6 1 4 9 11 13 16 15 11 8 13 14 13 14 15 16 15 16 15 13 13 12 11 11 13 12 11 10 10 9 10 11 10 9 11 11 13 16 14 12 10 7 6 7 9 9 9 13 13 14 16 19 18 15 14 15 16 15 18 18 16 13
3 2 2 8 3 6 10 10 11 12 9 12 15 14 15 14 13 12 15 14 13 14 13 12 12 14 12 13 11 13 12 9 8 9 11 10 11 11 10 10 12 9 5 5 5 10 9 10 11 13 8 11 8 13 16 15 18 19 14 16 16 13 11
4 5 7 3 2 2 5 8 10 6 7 9 14 14 14 13 12 11 13 13 14 14 13 12 13 12 12 12 11 13 13 14 11 9 7 8 8 10 11 13 14 11 9 5 4 8 8 9 9 7 9 5 11 14 13 13 14 15 14 11 10 11 11
11 11 8 1 2 1 3 7 9 11 8 7 12 12 12 12 12 13 14 12 12 11 11 13 12 11 11 11 13 13 14 15 15 15 15 13 10 10 12 12 12 13 13 4 2 5 5 5 5 7 8 7 8 10 15 12 9 13 14 13 10 8 10
8 7 1 5 4 3 3 3 7 7 8 8 9 9 9 11 12 12 13 11 10 11 11 12 12 12 12 12 12 13 12 13 13 14 15 16 18 17 14 11 14 12 11 8 4 5 7 6 4 2 3 9 11 10 9 13 11 12 13 13 13 11 10
Wind_Direction
233 200 180 207 211 221 190 184 215 223 179 224 264 284 252 278 265 241 205 229 237 266 236 188 183 187 191 183 185 191 195 186 187 190 190 189 186 187 184 182 185 180 179 184 184 183 182 180 181 185 182 179 177 176 178 181 182 182 185 188 187 187 186
217 225 191 200 210 221 140 208 221 249 204 253 208 206 222 242 208 244 212 229 260 186 246 215 187 189 189 192 197 199 201 177 176 184 186 186 185 181 185 188 189 186 177 184 186 182 180 183 184 182 181 178 178 178 176 178 179 183 186 186 187 187 187
199 215 216 212 217 206 228 214 123 202 167 230 208 215 223 206 233 247 232 233 228 180 237 189 192 180 181 189 196 199 209 179 173 179 181 181 181 183 186 188 191 192 189 186 185 185 184 181 179 181 178 176 178 178 177 178 182 184 183 185 187 188 188
179 197 200 218 195 203 225 251 258 204 205 196 211 207 246 161 245 222 252 242 237 198 198 192 180 174 173 181 188 201 209 184 177 174 177 181 182 183 184 190 194 195 197 194 189 186 184 180 179 177 176 177 180 178 176 179 181 180 182 185 187 190 189
169 202 189 200 175 187 198 214 233 226 244 146 193 202 216 191 204 191 193 241 232 255 202 191 205 188 185 190 193 192 202 186 181 170 178 183 182 185 187 189 192 196 198 195 193 189 186 178 172 172 177 182 179 176 178 178 178 182 186 187 187 190 186
223 205 179 185 184 189 199 202 218 223 211 221 190 219 199 215 206 207 213 238 281 246 191 202 201 205 198 193 187 187 183 175 186 177 174 178 185 189 187 187 193 193 191 193 191 188 182 173 174 178 180 178 179 181 177 178 180 184 187 188 189 186 187
247 228 182 185 182 189 200 194 218 223 215 215 219 206 251 204 227 227 222 279 255 256 249 208 223 184 206 193 171 177 191 184 184 188 188 182 184 185 186 188 190 190 186 184 182 181 183 179 179 178 177 180 182 179 177 180 181 186 189 190 186 184 186
273 265 230 182 183 186 201 204 203 211 221 215 230 217 184 197 191 203 190 230 243 220 246 240 218 192 191 180 171 184 186 191 196 180 182 183 188 189 187 186 186 186 185 177 171 179 184 182 176 177 181 181 178 181 181 181 184 186 188 187 185 185 187
269 279 272 201 183 187 200 203 192 206 219 214 228 249 153 226 206 194 160 236 228 236 221 271 240 213 158 173 195 176 177 188 195 207 168 179 183 187 190 186 184 172 160 170 181 182 184 183 179 176 175 176 179 182 181 185 185 186 187 185 185 186 188
205 217 214 199 187 190 188 209 196 192 209 213 206 228 219 216 231 211 221 238 238 206 194 239 241 225 218 167 187 197 186 187 188 198 160 177 183 183 175 174 155 163 174 183 182 181 181 181 178 178 176 176 178 180 185 183 184 186 186 184 187 186 188
211 229 251 283 184 175 197 195 210 201 197 212 217 209 222 222 216 215 224 216 258 276 208 204 226 210 205 222 189 192 203 188 189 149 150 176 173 167 168 167 170 172 176 179 182 178 177 181 180 178 177 177 177 178 181 184 185 185 184 185 186 188 189
213 206 236 243 245 224 197 192 198 212 211 200 211 207 226 210 135 267 252 224 229 235 254 267 247 203 206 218 178 140 143 153 171 163 157 167 173 175 171 173 172 176 182 181 174 175 174 179 179 176 180 178 176 177 181 183 182 183 184 185 187 189 189
212 222 241 235 240 247 216 195 191 197 213 225 211 219 222 200 215 230 239 206 208 243 244 246 226 240 221 192 188 184 174 138 127 149 158 166 172 174 175 174 172 174 176 178 180 177 177 177 179 178 178 180 177 178 180 182 183 186 181 182 187 189 190
206 221 229 239 247 248 245 203 194 196 200 213 231 233 220 215 212 230 237 210 223 224 247 231 218 202 219 227 204 153 113 121 136 137 155 161 167 168 174 177 178 178 178 183 184 180 179 179 182 183 180 181 181 180 182 183 185 183 178 183 185 188 191
200 200 220 240 239 252 257 249 209 202 203 208 212 227 242 232 237 229 223 229 243 239 221 250 226 204 110 85 92 320 168 140 144 148 154 158 163 168 177 181 184 188 187 184 180 179 180 183 185 184 184 184 184 183 182 183 186 183 181 182 186 189 192
255 217 202 216 239 250 258 262 246 208 206 210 197 209 211 232 228 227 233 225 240 255 230 245 255 157 164 175 151 156 194 182 159 154 160 164 169 170 173 181 184 187 188 186 183 185 187 188 185 185 186 185 182 185 183 186 186 182 183 184 186 190 191
232 245 299 210 208 228 247 243 244 246 216 203 224 213 198 205 222 236 219 226 218 215 203 203 259 264 201 182 182 175 194 183 205 190 164 169 175 177 175 185 189 188 184 183 188 191 190 188 188 190 185 181 186 188 187 187 181 183 185 187 187 189 189
147 210 233 264 231 221 227 230 245 239 249 237 218 221 217 208 198 212 216 212 207 143 171 199 221 234 246 201 212 196 187 196 197 209 212 189 183 189 190 184 185 186 184 187 189 189 190 193 192 190 183 184 189 188 186 179 180 187 186 186 188 189 188
162 176 216 255 246 245 259 181 214 234 246 256 265 278 258 251 224 226 216 202 230 238 222 201 208 219 258 265 201 201 202 180 180 197 200 223 214 171 187 194 189 186 191 187 180 183 190 194 194 187 186 189 186 185 180 182 184 186 188 184 188 188 190
132 155 164 221 234 247 311 238 162 93 261 247 278 289 273 305 4 6 12 14 27 64 52 28 336 349 258 249 179 183 173 150 161 180 187 192 182 179 182 190 192 192 190 185 184 189 192 189 187 186 187 184 180 185 184 184 186 187 188 184 185 187 190
189 159 221 251 354 319 283 265 225 118 162 17 194 224 294 36 50 75 85 14 23 29 23 66 44 30 31 349 306 252 190 211 175 163 184 198 218 217 194 181 194 190 186 190 190 190 188 186 184 190 185 180 180 181 185 187 187 188 188 186 186 186 190
170 155 213 251 233 236 222 262 6 357 14 80 118 106 324 12 51 83 84 71 57 35 26 23 32 49 42 348 315 288 279 214 211 209 210 200 197 211 229 190 189 188 193 195 197 191 185 186 189 187 181 179 177 180 186 188 186 189 188 190 187 184 187
360 167 196 214 233 227 159 112 137 67 34 71 68 67 3 326 9 57 75 68 58 51 37 17 44 54 30 281 296 317 328 308 282 255 200 207 182 118 303 252 189 194 191 193 194 187 183 188 189 185 182 181 179 183 186 189 189 189 190 190 184 183 184
169 91 204 225 215 245 294 200 192 108 84 63 51 261 275 283 7 49 70 68 58 54 42 54 56 47 32 338 326 322 318 332 327 290 272 167 125 142 119 81 181 199 194 189 187 188 190 192 185 181 181 183 185 184 187 188 192 193 188 186 183 179 169
109 101 345 294 334 356 311 10 4 3 113 79 117 205 199 286 35 41 62 63 59 58 57 53 70 38 25 333 321 349 352 345 350 348 337 150 154 118 97 30 98 175 194 188 190 193 193 191 187 183 179 182 186 186 184 187 194 196 185 172 163 158 153
16 342 58 248 296 200 119 339 42 346 14 138 182 206 212 66 51 51 59 66 54 61 63 70 80 72 29 350 359 11 8 0 10 5 346 333 344 53 35 40 29 172 190 194 194 196 191 187 186 185 181 184 187 184 182 189 195 188 167 159 153 149 149
328 39 42 43 328 302 260 54 11 22 101 242 277 95 59 60 61 60 53 53 52 62 63 58 64 53 33 18 7 7 16 14 360 351 12 13 359 345 5 30 15 19 201 193 193 192 187 186 185 185 185 187 187 183 185 190 181 162 155 153 148 146 144
330 344 139 178 270 329 311 174 192 231 162 217 323 81 78 49 47 51 60 53 45 48 70 57 54 47 37 22 9 7 16 15 9 2 360 10 15 11 358 358 5 27 17 275 210 183 181 186 191 190 188 183 182 183 189 177 152 147 147 143 140 139 139
22 311 321 317 325 318 314 75 101 104 16 44 77 83 75 64 39 36 63 56 49 44 55 57 48 46 32 23 13 19 6 5 16 10 3 7 15 16 13 6 358 7 18 26 15 354 327 215 194 195 188 181 179 180 171 150 149 147 145 141 138 137 136
297 252 231 325 336 326 310 321 98 95 80 51 52 63 71 51 55 45 52 53 61 57 60 67 48 44 26 21 18 14 7 8 4 10 13 16 11 14 16 11 6 332 27 53 46 31 6 342 303 228 187 178 174 169 154 151 147 142 137 134 132 131 130
23 307 14 11 339 316 302 264 68 80 84 74 71 71 70 70 61 59 46 49 56 68 68 66 67 53 39 40 32 24 20 18 13 12 13 17 19 16 16 16 5 354 25 55 60 69 45 350 351 323 247 174 160 150 148 145 140 136 134 130 127 125 124
263 280 13 332 314 296 336 358 33 88 92 85 79 79 78 74 66 61 53 54 52 48 55 54 68 64 50 47 35 34 28 22 19 16 15 15 18 13 19 17 17 14 16 47 70 65 63 55 41 0 330 332 144 144 141 138 134 130 129 128 124 120 117
293 283 108 355 324 310 1 25 4 359 56 90 82 79 75 71 67 63 58 53 55 52 52 44 48 52 40 37 35 33 27 27 24 17 13 20 27 25 20 14 13 14 14 42 41 53 60 62 64 52 355 0 6 21 39 60 76 71 72 81 91 93 94
342 22 1 312 23 307 332 22 19 346 9 70 83 74 66 60 64 64 67 57 52 54 44 43 47 52 40 31 31 38 30 23 14 23 26 16 21 28 30 28 19 16 18 351 28 50 50 51 65 76 29 335 20 53 71 75 87 90 87 93 99 106 112
300 312 313 353 323 330 335 345 356 4 6 36 65 71 76 70 64 61 65 63 52 47 42 36 46 47 43 35 29 37 35 29 20 19 27 35 19 11 23 40 26 13 7 14 64 73 54 55 61 67 83 19 68 77 73 86 91 104 113 117 118 120 120
268 264 257 104 292 87 341 359 17 8 2 39 65 66 70 75 73 71 69 62 65 57 49 42 36 40 42 38 34 36 33 28 25 24 24 16 16 20 17 25 29 16 0 21 55 96 102 58 99 113 117 117 104 128 134 132 140 127 119 115 119 124 122
289 311 225 186 214 128 310 1 40 25 11 27 55 60 68 76 76 75 75 69 61 64 59 49 37 35 41 35 35 36 32 27 26 27 25 24 22 14 359 13 32 21 357 347 86 89 97 124 154 101 238 151 148 153 144 133 140 127 125 127 130 130 127